P/2020 M1 ( PanSTARRS )

Japanese version
Home page
Updated on August 15, 2020

---------------------------------------------------------------------

* Profile

Discovery Date June 17, 2020
Magnitude 21.3 mag
Discoverer Pan-STARRS 1 telescope (Haleakala)

* Orbital Elements

Epoch 2019 Dec. 23.0 TT = JDT 2458840.5
T 2019 Dec. 21.00957 TT                                 Rudenko
q   2.6606849            (2000.0)            P               Q
n   0.08600626     Peri.   67.81951     -0.85281492     +0.51432701
a   5.0829519      Node   142.96100     -0.51712656     -0.80764808
e   0.4765473      Incl.    8.63259     -0.07271068     -0.28839609
P  11.5
From 46 observations 2020 May 24-July 18, mean residual 0".2.

* Magnitudes Graph

        m1 = 14.5 + 5 log d + 10.0 log r

---------------------------------------------------------------------

The orbital elements are published on M.P.E.C. 2020-P19.
The magnitudes graphs are made with Comet for Windows.

---------------------------------------------------------------------

Copyright(C) Seiichi Yoshida (comet@aerith.net). All rights reserved.